CAPE
28 289 327 606 563 310 224 51 58 38 76 174 415 447 285 149 19 0 0 0 6 17 6 6 8 11 15 11 10 11 8 6 7 6 4 2 2 5 4 0 0 1 6
42 293 463 585 274 196 211 42 36 30 108 231 539 459 390 76 11 0 1 1 8 8 7 20 5 4 3 5 8 3 3 3 3 4 1 5 12 8 6 6 9 25 32
104 254 343 508 218 242 190 93 56 44 89 163 557 447 199 43 16 2 2 1 8 9 4 12 18 10 6 7 4 5 2 0 2 1 3 25 29 39 51 42 39 30 31
132 310 435 398 144 283 199 114 68 53 77 243 552 411 133 33 4 4 3 2 8 10 4 18 19 13 7 9 4 10 4 4 3 9 15 12 25 29 19 22 17 16 19
104 240 407 540 244 284 127 57 57 54 45 183 417 299 118 17 4 3 4 4 9 8 5 20 18 8 7 7 9 7 7 9 16 9 9 10 14 27 21 14 9 15 26
136 295 400 595 119 11 15 39 27 34 23 80 260 169 60 6 5 3 5 5 9 10 4 9 13 7 4 2 9 20 14 8 4 1 2 17 22 30 20 9 10 13 13
140 276 452 568 199 6 1 4 0 15 20 22 144 145 53 2 4 2 3 7 6 5 4 17 22 10 14 21 22 20 9 5 1 0 0 3 17 27 20 13 3 16 11
92 166 287 464 273 35 58 36 0 0 6 0 88 62 0 2 2 2 2 3 4 4 7 28 26 21 21 26 24 12 3 4 0 0 0 18 37 21 16 15 10 7 5
80 151 223 366 297 96 104 69 3 0 0 0 20 3 1 1 2 2 1 2 5 3 5 2 2 8 4 9 8 3 3 1 3 1 1 9 29 21 20 10 10 2 1
75 152 197 285 282 140 54 37 0 0 0 0 0 0 0 0 0 0 0 1 4 4 4 5 0 0 0 0 0 1 0 0 0 0 0 13 27 21 8 2 2 9 5
90 129 158 195 233 154 51 10 0 0 0 0 0 0 0 0 0 0 0 0 4 2 2 2 0 0 0 0 0 0 0 0 0 0 0 14 18 11 7 1 7 9 9
135 124 100 136 181 178 98 16 0 0 0 0 0 0 0 0 0 0 0 0 0 2 3 0 0 0 0 0 0 0 0 0 0 0 9 18 11 9 1 7 1 8 10
204 166 113 75 131 188 161 55 3 0 0 0 0 0 0 0 0 0 0 0 0 0 0 0 0 0 0 0 0 0 0 0 0 3 10 6 15 20 13 4 2 2 3
131 148 107 62 96 139 135 95 40 0 0 0 0 0 0 0 0 0 0 0 0 0 0 0 0 0 0 0 0 0 0 0 0 0 8 2 6 11 13 7 2 2 3
84 108 118 53 50 84 73 74 37 4 0 0 0 0 0 0 0 0 0 0 0 0 0 0 0 0 0 0 0 0 0 0 0 1 1 1 4 9 14 9 4 1 5
24 43 61 54 49 51 45 55 21 5 1 0 0 0 0 0 0 0 0 0 0 0 0 0 0 0 0 0 0 0 0 0 0 0 0 0 0 0 13 6 7 1 1
0 4 18 24 32 31 25 20 11 1 1 1 0 0 0 0 0 0 0 0 0 0 0 0 0 0 0 0 0 0 0 0 0 0 0 0 0 0 1 6 6 8 0
0 0 0 0 0 3 7 5 2 0 1 2 1 0 0 0 0 0 0 0 0 0 0 0 0 0 0 0 0 0 0 0 0 0 0 0 0 0 0 11 8 3 8
0 0 0 0 0 0 0 0 0 0 0 0 1 0 0 0 0 0 0 0 0 0 0 0 0 0 0 0 0 0 0 0 0 0 0 0 0 0 0 0 3 2 7
0 0 0 0 0 0 0 0 0 0 0 0 0 1 0 0 0 0 0 0 0 0 0 0 0 0 0 0 0 0 0 0 0 0 0 0 0 0 0 0 0 0 0
0 0 0 0 0 0 7 6 1 8 1 0 0 0 0 0 0 0 0 0 0 0 0 0 0 0 0 0 0 0 0 0 0 0 0 0 0 0 0 0 0 0 0
0 0 0 0 0 0 13 18 25 15 9 1 1 0 3 0 0 0 0 0 0 0 0 0 0 0 0 0 0 0 0 0 0 0 0 0 0 0 0 0 0 0 0
0 0 0 0 0 0 5 8 0 0 0 0 0 0 0 0 0 1 0 0 0 0 0 0 0 0 0 0 0 0 0 0 0 0 0 0 0 0 0 0 0 0 0
0 0 0 0 0 0 0 1 7 14 10 1 0 0 0 0 1 6 1 1 0 0 1 0 0 0 0 0 0 0 0 0 0 0 0 0 0 0 0 0 0 0 0
0 0 0 0 0 0 0 0 0 0 0 0 0 0 0 0 0 0 2 2 0 1 1 1 1 1 0 0 0 0 0 0 0 0 0 0 0 0 0 0 0 0 0
0 0 0 0 0 0 0 0 0 0 0 0 0 0 0 0 0 0 0 3 1 1 1 1 0 0 0 0 0 0 0 0 0 0 0 0 0 0 0 0 0 0 0
CIN
-147 -28 -26 -2 0 -21 -21 -75 -72 -103 -64 -16 0 0 -1 -26 -145 0 0 0 0 -1 -1 0 -2 -2 -5 -7 -7 -9 -9 -9 -6 -4 -1 0 0 -1 -1 0 0 -1 0
-161 -37 -8 -3 -26 -41 -44 -89 -109 -103 -45 -19 0 0 -3 -59 -173 0 0 -1 -1 -1 -3 -3 -1 0 -1 -1 -2 -2 -1 -1 -1 -1 0 -3 -1 0 -1 -1 -2 -2 -1
-111 -52 -20 -13 -47 -35 -44 -64 -102 -102 -64 -47 0 -4 -25 -86 -163 0 0 0 -1 -1 -1 -1 -2 0 0 0 0 -1 0 0 -2 -1 -7 -7 -2 -16 -43 -13 0 0 -1
-112 -51 -27 -31 -67 -31 -49 -75 -99 -87 -89 -45 -1 -2 -24 -110 -26 0 0 0 -1 0 -1 0 -2 0 0 0 0 0 0 -1 -6 -7 -17 -7 -2 0 -1 0 0 0 0
-138 -68 -31 -8 -44 -32 -81 -137 -127 -125 -113 -40 -3 -9 -44 -126 0 0 0 0 0 -1 0 0 0 0 0 0 -1 -1 0 -3 -17 -34 -29 -27 -12 -5 -3 0 -2 -5 -5
-146 -69 -32 -5 -109 -142 -124 -119 -139 -133 -115 -53 -8 -25 -82 0 0 0 0 0 0 0 -4 0 0 0 0 0 -1 -3 -6 -15 -27 -29 -28 -18 -14 0 -3 -1 -3 -4 -7
-171 -77 -34 -10 -59 -26 -7 -31 0 -138 -137 -114 -12 -15 -90 0 0 0 0 0 0 -1 -3 0 0 0 0 -5 -4 -11 -18 -23 -27 0 0 -14 -4 -3 0 -2 -1 -2 -2
-240 -149 -66 -21 -42 -131 -97 -100 0 0 -61 0 -47 -75 0 0 0 0 0 0 0 0 -1 0 0 -3 -5 -11 -12 -20 -28 -26 -1 0 0 -8 0 -1 -1 -1 -2 -1 -1
-264 -188 -103 -39 -39 -100 -85 -109 -57 0 0 0 -141 -34 -1 -1 0 0 0 0 0 -1 0 0 0 -5 -15 -21 -25 -37 -41 -32 -43 -6 -5 -14 -7 -1 -1 -1 -1 -1 -1
-263 -192 -163 -69 -45 -92 -145 -158 0 0 0 0 0 0 0 0 0 0 0 0 0 0 -3 0 0 0 0 0 0 -29 0 -7 0 0 0 -11 -4 -1 -1 -1 0 -1 0
-272 -228 -192 -143 -89 -112 -170 -133 0 0 0 0 0 0 0 0 0 0 0 -1 -1 0 -3 0 0 0 0 0 0 0 0 0 0 0 0 -11 -2 -2 -1 -1 0 0 0
-272 -259 -262 -220 -159 -120 -147 -228 0 0 0 0 0 0 0 0 0 0 0 0 -1 -1 0 0 0 0 0 0 0 0 0 0 0 0 -20 -5 -2 -2 -2 -2 0 -1 0
-267 -266 -291 -295 -215 -157 -151 -235 -103 0 0 0 0 0 0 0 0 0 0 0 0 0 0 0 0 0 0 0 0 0 0 0 0 -33 -20 -9 -2 -2 -2 -1 -1 -1 -1
-367 -322 -311 -329 -261 -209 -199 -223 -281 0 0 0 0 0 0 0 0 0 0 0 0 0 0 0 0 0 0 0 0 0 0 0 -30 -11 -39 -27 -19 -2 -1 -1 -1 -1 -1
-413 -375 -365 -407 -353 -278 -261 -240 -288 -161 0 0 0 0 0 0 0 0 0 0 0 0 0 0 0 0 0 0 0 0 0 0 0 -23 -42 -45 -37 -4 -2 -2 -2 0 0
-486 -472 -443 -434 -411 -373 -358 -313 -360 -162 -2 0 0 0 0 0 0 0 0 0 0 0 0 0 0 0 0 0 0 0 0 0 0 0 0 0 0 -6 -3 -1 -1 -1 -1
0 -402 -530 -533 -505 -470 -438 -405 -406 0 0 0 0 0 0 0 0 0 0 0 0 0 0 0 0 0 0 0 0 0 0 0 0 0 0 0 0 0 -10 -2 -1 -1 -1
0 0 0 0 0 -439 -420 -401 -151 0 0 0 0 0 0 0 0 0 0 0 0 0 0 0 0 0 0 0 0 0 0 0 0 0 0 0 0 0 0 -6 -2 -1 -1
0 0 0 0 0 0 0 0 0 0 0 0 0 0 -32 0 0 0 0 0 0 0 0 0 0 0 0 0 0 0 0 0 0 0 0 0 0 0 0 0 -8 -1 -1
0 0 0 0 0 0 0 0 0 0 0 0 0 0 0 0 0 0 0 0 0 0 0 0 0 0 0 0 0 0 0 0 0 0 0 0 0 0 0 0 0 0 0
0 0 0 0 0 0 -533 -483 0 -385 0 0 0 0 0 0 0 0 0 0 0 0 0 0 0 0 0 0 0 0 0 0 0 0 0 0 0 0 0 0 0 0 0
0 0 0 0 0 0 -572 -537 -507 -478 -480 0 0 0 -49 -25 0 0 0 0 0 0 0 0 0 0 0 0 0 0 0 0 0 0 0 0 0 0 0 0 0 0 0
0 0 0 0 0 0 -308 -603 0 0 0 0 0 0 0 0 -18 -29 0 0 0 0 0 0 0 0 0 0 0 0 0 0 0 0 0 0 0 0 0 0 0 0 0
0 0 0 0 0 0 0 -128 -596 -538 -542 -108 0 0 0 0 0 -42 -13 0 0 0 0 0 0 0 0 0 0 0 0 0 0 0 0 0 0 0 0 0 0 0 0
0 0 0 0 0 0 0 0 0 0 0 0 0 0 0 0 0 0 -31 -45 0 0 0 0 0 0 0 0 0 0 0 0 0 0 0 0 0 0 0 0 0 0 0
0 0 0 0 0 0 0 0 0 0 0 0 0 0 0 0 0 0 0 -27 -8 0 0 0 0 0 0 0 0 0 0 0 0 0 0 0 0 0 0 0 0 0 0
Wind_Speed
13 5 6 5 6 7 9 10 11 9 11 12 13 14 15 16 17 19 20 20 20 21 21 21 20 19 18 18 19 20 21 21 21 21 21 21 21 21 21 21 20 20 21
16 15 7 5 7 6 7 8 7 8 11 12 14 15 15 16 16 18 19 20 20 20 20 21 21 20 20 20 20 21 21 21 21 21 20 20 21 21 21 21 22 22 24
19 18 21 10 4 9 8 4 7 10 11 13 14 13 15 17 18 19 19 19 20 20 21 20 21 21 21 20 20 20 21 21 20 20 19 18 19 20 20 21 22 22 23
24 22 25 25 12 7 11 5 7 11 11 14 14 14 15 16 17 19 19 19 20 20 20 20 20 20 20 19 19 20 19 19 19 18 18 18 19 20 19 19 20 21 22
28 27 27 29 25 6 4 6 10 16 14 14 12 15 15 17 18 18 19 19 19 19 19 19 19 19 19 19 19 19 19 18 18 18 17 17 17 17 18 18 20 21 22
29 28 28 28 26 26 26 26 25 25 17 20 17 16 16 16 16 17 17 17 17 17 18 18 18 19 19 19 18 19 18 18 18 18 17 17 17 17 17 18 19 21 22
28 28 28 27 26 25 26 25 25 24 23 22 16 16 16 15 15 16 16 16 16 16 17 17 18 19 18 18 18 18 18 18 18 17 18 17 16 17 18 19 20 21 22
27 26 26 26 26 26 25 25 25 24 22 19 16 16 15 15 15 16 16 16 16 17 17 17 17 18 18 17 18 17 17 18 17 17 17 16 16 17 18 19 20 20 21
26 25 25 25 25 25 24 24 23 23 20 18 15 14 14 15 16 16 16 16 17 17 16 16 16 17 17 16 16 16 16 16 17 16 16 16 16 17 18 19 19 20 20
24 24 24 24 24 23 22 21 20 20 19 18 16 15 16 16 16 16 16 17 17 17 17 17 16 16 16 16 16 15 15 15 16 16 16 15 16 17 18 18 19 19 19
23 22 22 22 22 21 20 20 18 17 17 16 16 15 15 16 16 16 16 16 16 16 16 16 16 16 16 16 16 15 14 14 14 15 15 15 15 16 17 17 18 18 18
22 23 22 21 20 19 18 17 16 15 15 14 14 14 14 14 14 14 15 15 15 15 15 15 15 15 15 15 15 15 14 13 14 14 15 15 14 15 16 16 17 17 17
22 21 22 21 20 19 18 16 15 14 13 13 13 12 12 13 13 13 13 13 14 14 14 14 14 14 14 14 14 14 13 13 13 13 12 13 14 15 15 15 15 16 16
21 21 21 20 19 19 17 16 14 13 12 10 10 10 10 10 11 11 11 12 12 12 13 13 13 13 14 14 13 13 12 12 12 12 11 11 11 13 13 13 14 14 15
20 21 21 20 19 18 16 15 14 12 11 9 8 7 7 7 8 8 9 9 9 10 11 11 12 12 12 12 12 11 11 11 10 10 10 10 10 12 12 12 12 13 13
21 21 20 20 19 18 17 16 15 13 11 9 8 7 6 6 6 6 6 6 6 7 8 9 9 10 11 12 11 10 10 9 8 8 8 7 8 10 10 11 10 10 11
20 19 20 19 18 17 16 14 12 11 9 8 8 7 6 5 4 3 3 3 3 4 6 7 8 10 10 11 11 12 11 9 7 7 7 8 8 8 9 9 9 9 10
16 18 17 15 15 15 13 10 9 8 8 9 7 7 7 5 4 2 1 1 2 2 3 6 8 10 11 11 11 11 13 14 13 12 12 12 12 10 12 11 10 10 10
16 14 14 12 14 14 11 8 7 7 7 7 6 6 7 6 5 3 3 2 1 3 4 5 8 9 11 13 14 15 14 14 14 14 13 14 14 15 13 12 11 12 12
12 10 10 10 11 11 7 6 5 5 6 4 5 4 5 5 5 6 5 4 3 4 5 6 8 10 13 12 17 18 19 18 17 15 17 17 17 16 16 14 14 15 13
8 9 9 9 9 8 7 7 7 8 7 6 6 6 5 6 5 6 7 7 6 7 8 8 10 10 12 15 18 20 19 19 17 19 18 18 19 19 19 17 16 16 16
9 9 9 9 8 10 9 8 7 7 7 8 8 9 9 8 8 9 9 10 10 10 10 10 10 12 14 12 16 22 24 25 20 20 21 21 20 20 22 21 19 18 17
18 13 9 10 10 9 9 9 11 13 14 12 12 11 11 11 11 11 12 12 13 13 13 13 14 14 16 14 14 18 23 23 26 23 20 22 23 23 22 23 22 21 20
22 20 16 13 11 11 10 10 11 11 11 11 13 14 14 13 14 15 15 14 15 14 16 16 15 16 16 18 18 18 20 25 28 31 26 25 25 24 25 25 25 24 23
20 20 19 15 13 12 11 12 12 13 15 18 17 17 17 17 16 16 17 17 17 17 17 17 17 17 17 19 20 22 22 25 27 30 35 32 31 30 29 29 28 26 26
18 18 17 16 15 13 12 12 14 15 16 18 20 21 20 20 19 18 19 19 19 19 19 19 19 19 19 21 22 23 24 27 28 29 34 35 38 35 32 30 29 29 28
Wind_Direction
101 24 36 18 9 9 24 21 25 15 29 24 29 39 38 35 34 32 33 36 37 39 38 39 32 30 28 29 31 33 35 36 37 35 34 32 32 33 32 30 28 26 28
98 87 45 41 22 10 19 21 8 16 30 30 37 44 41 34 29 33 36 40 42 39 36 38 39 37 37 37 37 40 40 40 36 37 29 35 37 33 34 36 37 38 40
98 92 97 69 14 44 21 343 14 26 34 41 38 40 40 39 36 38 39 44 46 42 44 45 45 41 41 40 41 43 41 38 36 35 28 27 30 35 36 37 37 36 35
108 104 110 113 64 38 47 354 1 28 22 48 45 44 40 34 37 40 44 50 51 44 38 46 45 39 39 39 39 43 38 35 32 29 28 25 30 31 29 25 27 27 29
120 119 121 127 106 31 347 5 31 54 47 47 33 47 42 40 41 41 45 52 50 41 38 40 43 38 39 40 43 38 36 29 31 27 22 19 18 18 20 19 24 25 27
125 126 126 120 114 114 115 116 114 113 60 72 52 49 43 36 36 36 37 44 41 30 33 39 38 36 43 45 40 33 33 32 30 25 18 15 14 15 16 20 22 24 26
126 131 134 135 126 119 124 118 117 104 91 85 53 50 43 34 35 38 36 34 32 24 26 41 40 41 45 41 35 34 33 31 28 23 20 13 11 19 26 26 27 29 33
130 133 135 136 135 133 131 128 127 116 89 77 58 53 42 39 39 40 40 39 36 30 33 37 37 39 39 34 31 34 32 32 23 16 12 10 19 22 23 28 31 32 33
135 134 135 137 136 132 127 124 116 117 87 71 51 42 36 41 44 40 39 43 41 35 37 34 34 32 29 28 29 30 27 25 20 9 5 7 13 22 30 33 34 32 32
137 138 137 136 137 134 128 120 112 105 96 83 63 57 55 52 50 49 44 51 48 43 42 41 39 37 36 36 36 34 30 20 12 10 6 13 20 24 31 35 34 32 31
144 143 138 137 138 133 129 124 114 104 97 89 79 72 65 60 59 55 53 53 52 52 50 44 41 38 35 31 30 34 30 22 15 12 12 19 20 24 26 29 29 31 31
149 150 145 140 139 134 129 122 117 106 101 94 89 83 71 66 64 57 56 53 54 55 48 45 42 37 31 26 22 23 20 18 13 12 16 15 16 18 19 21 25 25 24
150 150 150 146 143 139 137 130 122 116 106 102 100 91 78 71 63 59 52 50 48 42 38 39 37 32 30 28 22 22 19 12 7 5 18 19 12 12 15 18 18 20 21
151 152 154 151 148 148 143 140 134 129 120 110 106 92 80 71 65 65 58 55 53 47 41 40 33 29 25 26 28 28 26 14 9 7 17 19 20 9 10 13 13 12 14
158 159 157 153 154 152 150 147 143 140 135 124 112 99 83 77 76 63 54 52 51 43 37 33 29 28 26 26 26 26 24 14 14 12 13 18 16 8 2 1 3 6 8
167 166 163 162 160 156 157 157 157 151 146 142 133 126 112 100 84 65 52 47 42 37 30 28 30 24 19 15 13 14 13 11 10 8 11 9 9 4 360 352 353 356 358
172 168 170 168 165 165 162 158 156 156 149 149 156 147 142 129 112 88 61 50 45 27 19 13 8 3 2 358 356 354 353 355 354 353 351 348 347 354 349 341 339 340 341
175 177 173 170 171 172 169 163 158 156 159 161 155 158 162 157 146 120 74 110 40 18 360 346 344 344 343 342 341 338 337 335 331 328 328 326 329 328 333 329 327 324 325
185 182 183 180 182 182 179 178 177 173 174 171 167 166 171 181 184 189 209 237 304 315 310 322 329 326 326 328 328 328 326 322 321 318 313 313 312 315 317 315 309 310 310
193 195 196 200 196 192 197 203 208 200 200 209 207 205 196 196 204 212 231 244 272 286 291 294 304 319 323 318 323 319 318 316 313 308 306 307 305 302 305 301 303 304 296
219 220 212 211 215 215 219 221 224 217 222 234 242 241 258 249 246 240 256 260 266 268 263 277 303 297 310 318 320 319 309 308 300 302 300 299 297 300 300 298 292 294 294
265 224 240 227 235 217 223 232 259 261 265 269 274 264 258 262 272 273 275 276 273 281 282 276 275 299 304 298 315 323 316 316 299 289 292 292 291 291 293 296 292 288 283
288 280 256 235 237 234 234 271 289 300 304 302 293 278 266 271 276 278 274 280 275 278 282 278 278 281 288 290 288 311 324 313 323 319 295 290 290 289 290 290 290 288 282
295 292 288 282 269 266 262 259 254 266 276 285 297 300 296 283 282 285 283 280 279 280 281 279 281 282 291 293 297 280 297 316 313 317 316 308 299 290 287 289 287 284 284
310 303 298 293 287 283 273 271 274 280 293 303 305 304 304 301 293 290 290 287 284 283 283 284 287 284 283 293 290 304 290 299 305 303 309 308 310 298 293 291 289 285 281
327 325 319 311 303 298 291 285 284 289 294 301 305 306 306 307 306 302 300 298 295 291 289 287 284 282 283 286 293 293 295 307 303 299 297 300 304 305 296 294 287 286 283